Weather in Gorushka

Russia / Pskov Oblast     57˚31′19″N   29˚33′59″E
temp.,
°C
wind,
m/s
gust,
m/s
humid.,
%
clouds,
%
prec.,
mm/h
press.,
hPa
HPBL,
m
16 january, sat
sat1600:00−19˚ne259797 0.1 1015324
03:00−19˚ne259698 0.3 1015428
06:00−19˚ne3595100 0.3 1015408
09:00−21˚ne26100100 0.3 1016184
12:00−19˚nne249397 0.0 1017249
15:00−18˚n259198 0.0 1017272
18:00−18˚nnw3694100 0.0 1016277
21:00−18˚nnw2696100 0.0 1017256
17 january, sun
sun1700:00−17˚nnw3697100 0.0 1017225
03:00−19˚n2498100 0.0 1018108
06:00−20˚nnw229755 0.0 101834
09:00−19˚nnw229833 0.0 101930
12:00−15˚nw239537 0.0 1020120
15:00−13˚w239451 0.0 1020168
18:00−15˚w249878 0.0 102082
21:00−15˚w359880 0.1 1020125
18 january, mon
mon1800:00−13˚w369697 0.1 1019170
03:00−12˚w269690 0.3 1019159
06:00−11˚w269689 0.2 1018166
09:00−10˚w259690 0.3 1019152
12:00−8˚wnw249488 0.1 1019196
15:00−7˚wnw259487 0.3 1018249
18:00−8˚w259785 0.1 1018139
21:00−9˚w239790 0.4 101983
19 january, tue
tue1900:00−10˚w249791 0.1 1019107
03:00−12˚wsw229585 0.1 101931
06:00−13˚sw239259 0.0 101947
09:00−14˚sw239338 0.0 101960
12:00−11˚sw259416 0.0 1019167
15:00−10˚sw259443 0.0 1019214
18:00−13˚sw259779 0.0 1019105
21:00−13˚ssw369667 0.0 1020124
20 january, wed
wed2000:00−13˚ssw388813 0.0 1020161
03:00−14˚s4118223 0.0 1019212
06:00−13˚s51175100 0.0 1018264
09:00−12˚s51277100 0.0 1017321
12:00−10˚s61383100 0.0 1016398
15:00−7˚s71586100 0.0 1013514
18:00−7˚s71592100 0.4 1011624
21:00−6˚ssw61492100 1.4 1010518